Location: Cambridge
(43.3830°N, 80.3170°W)
Time: 20:15:47
(UTC-04:00)

Envisat - Visible Passes

Search period start: 21 March 2019 00:00
Search period end: 31 March 2019 00:00
Orbit: 764 x 766 km, 98.2° (Epoch: 21 March)

Date Brightness Start Highest point End Pass type
(mag) Time Alt. Az. Time Alt. Az. Time Alt. Az.
21 Mar 3.8 20:16:47 10° S 20:21:46 57° W 20:26:47 10° NNW visible
22 Mar 5.9 21:21:38 10° SW 21:24:31 15° W 21:27:25 10° NW visible
23 Mar 4.9 20:42:53 10° SSW 20:47:25 32° W 20:51:59 10° NNW visible
24 Mar 3.4 20:05:28 10° S 20:10:32 72° WSW 20:15:37 10° NNW visible
25 Mar 5.7 21:09:36 10° SW 21:13:10 19° W 21:16:45 10° NW visible
26 Mar 4.4 20:31:23 10° SSW 20:36:08 41° W 20:40:57 10° NNW visible
27 Mar 6.2 21:38:03 10° W 21:39:02 10° W 21:40:01 10° WNW visible
28 Mar 5.4 20:57:48 10° SSW 21:01:51 24° W 21:05:56 10° NW visible
29 Mar 4.0 20:19:57 10° S 20:24:52 51° W 20:29:51 10° NNW visible
30 Mar 6.0 21:25:09 10° WSW 21:27:40 14° W 21:30:12 10° WNW visible
